Location: Izdebno
(52.6670°N, 16.2170°E)
Time: 19:14:42
(UTC+02:00)

Transit 4A - Pass Details

Date: 26 February 2024
Orbit: 871 x 972 km, 66.8° (Epoch: 21 April)

Event Time Altitude Azimuth Distance (km) Brightness Sun altitude
Rises 05:06:10 0° 290° (WNW) 3,561 - -16.5°
Reaches altitude 10° 05:09:23 10° 306° (NW) 2,600 - -16.0°
Exits shadow 05:09:55 12° 310° (NW) 2,465 9.7 -15.9°
Maximum altitude 05:13:52 21° 354° (N) 1,904 9.5 -15.3°
Drops below altitude 10° 05:18:17 10° 43° (NE) 2,556 10.9 -14.6°
Sets 05:21:25 0° 59° (ENE) 3,484 12.1 -14.2°
